HS1WDC-1 Weather Reports


Display with metric or nautical units.
time (UTC)temp
F
wind
direction
speed
MPH
gust
MPH
rain 1hr
in
rain 24hr
in
rain mn
in
humidity
%
barometer
mb
20260504080628 107 0 0.0 0.0 0.00 0.00 0.00 40 1005.0
20260504050136 100 0 0.0 0.0 0.00 0.00 0.00 51 1009.0
20260504044612 100 0 0.0 0.0 0.00 0.00 0.00 50 1009.0
20260504043047 100 0 0.0 0.0 0.00 0.00 0.00 47 1009.0
20260504041523 104 0 0.0 0.0 0.00 0.00 0.00 40 1009.0
20260504035958 104 0 0.0 0.0 0.00 0.00 0.00 40 1009.0
20260504034434 103 0 0.0 0.0 0.00 0.00 0.00 41 1009.0
20260504032910 104 0 0.0 0.0 0.00 0.00 0.00 40 1009.0
20260504031346 103 0 0.0 0.0 0.00 0.00 0.00 43 1009.0
20260504025822 103 0 0.0 0.0 0.00 0.00 0.00 43 1009.0
20260504024257 103 0 0.0 0.0 0.00 0.00 0.00 44 1009.0
20260504022733 102 0 0.0 0.0 0.00 0.00 0.00 45 1010.0
20260504021209 102 0 0.0 0.0 0.00 0.00 0.00 46 1010.0
20260504015645 100 0 0.0 0.0 0.00 0.00 0.00 48 1010.0
20260504014120 100 0 0.0 0.0 0.00 0.00 0.00 50 1010.0
20260504012556 99 0 0.0 0.0 0.00 0.00 0.00 51 1010.0
20260504011032 98 0 0.0 0.0 0.00 0.00 0.00 53 1009.0
20260504003943 97 0 0.0 0.0 0.00 0.00 0.00 54 1009.0
20260504002419 97 0 0.0 0.0 0.00 0.00 0.00 54 1009.0
20260504000854 96 0 0.0 0.0 0.00 0.00 0.00 55 1009.0
20260503235330 95 0 0.0 0.0 0.00 0.00 0.00 56 1009.0
20260503233805 94 0 0.0 0.0 0.00 0.00 0.00 59 1008.0
20260503232241 93 0 0.0 0.0 0.00 0.00 0.00 59 1008.0
20260503230717 94 0 0.0 0.0 0.00 0.00 0.00 59 1008.0
20260503225153 93 0 0.0 0.0 0.00 0.00 0.00 59 1008.0
20260503223628 94 0 0.0 0.0 0.00 0.00 0.00 59 1008.0
20260503222104 94 0 0.0 0.0 0.00 0.00 0.00 58 1007.0
20260503220539 94 0 0.0 0.0 0.00 0.00 0.00 58 1007.0
20260503215015 95 0 0.0 0.0 0.00 0.00 0.00 57 1007.0
20260503213451 94 0 0.0 0.0 0.00 0.00 0.00 59 1007.0
20260503211926 94 0 0.0 0.0 0.00 0.00 0.00 59 1007.0
20260503210402 95 0 0.0 0.0 0.00 0.00 0.00 57 1007.0
20260503204838 96 0 0.0 0.0 0.00 0.00 0.00 56 1007.0
20260503203313 95 0 0.0 0.0 0.00 0.00 0.00 57 1007.0
20260503201749 96 0 0.0 0.0 0.00 0.00 0.00 57 1006.0
20260503200225 96 0 0.0 0.0 0.00 0.00 0.00 56 1006.0
20260503194634 96 0 0.0 0.0 0.00 0.00 0.00 58 1006.0
20260503193110 96 0 0.0 0.0 0.00 0.00 0.00 57 1006.0
20260503191546 96 0 0.0 0.0 0.00 0.00 0.00 57 1007.0
20260503190021 96 0 0.0 0.0 0.00 0.00 0.00 56 1007.0
20260503184457 97 0 0.0 0.0 0.00 0.00 0.00 54 1007.0
20260503182932 98 0 0.0 0.0 0.00 0.00 0.00 53 1007.0
20260503181408 98 0 0.0 0.0 0.00 0.00 0.00 53 1008.0
20260503175844 98 0 0.0 0.0 0.00 0.00 0.00 52 1008.0
20260503174319 98 0 0.0 0.0 0.00 0.00 0.00 53 1008.0
20260503172755 97 0 0.0 0.0 0.00 0.00 0.00 53 1008.0
20260503171231 98 0 0.0 0.0 0.00 0.00 0.00 51 1008.0
20260503150916 100 0 0.0 0.0 0.00 0.00 0.00 44 1007.0
20260503130602 102 0 0.0 0.0 0.00 0.00 0.00 40 1005.0